Tracking 25710 objects as of 5-Jul-2022
HD Live streaming from Space Station
objects crossing your sky now

FENGYUN 1C DEB

Track FENGYUN 1C DEB now!
10-day predictions


NORAD ID: 30809
Int'l Code: 1999-025AUT
Perigee: 802.1 km
Apogee: 892.9 km
Inclination: 98.8 °
Period: 101.7 minutes
Semi major axis: 7218 km
RCS: 0.0182 m2 (small)
Launch date: May 10, 1999
Source: People's Republic of China (PRC)
Launch site: Taiyaun Space Center, China (TSC)

Note: This is SATELLITE DEBRIS
aabbcc
Your satellite tracking list
Your tracking list is empty




NASA's NSSDC Master Catalog

Two Line Element Set (TLE):
1 30809U 99025AUT 22185.68277617  .00001178  00000-0  61291-3 0  9996
2 30809  98.8445 261.0708 0062872 186.5557 173.4801 14.15580531792786
Source of the keplerian elements: AFSPC